Location: Namasale
(1.5000°N, 32.6167°E)
Time: 17:48:14
(UTC+00:00)

Courier 1B - Pass Details

Date: 28 April 2021
Orbit: 962 x 1209 km, 28.3° (Epoch: 18 May)

Event Time Altitude Azimuth Distance (km) Brightness Sun altitude
Rises 16:03:36 0° 283° (WNW) 3,630 13.9 -3.6°
Reaches altitude 10° 16:06:25 10° 274° (W) 2,691 11.6 -4.3°
Maximum altitude 16:12:19 36° 209° (SSW) 1,490 8.7 -5.8°
Drops below altitude 10° 16:18:26 10° 144° (SE) 2,789 9.4 -7.2°
Enters shadow 16:20:28 - 137° (SE) 3,458 9.9 -7.7°
Sets 16:21:25 0° 135° (SE) 3,778 - -8.0°
